When you browse on this site, cookies collect data to enhance your experience and personalize the content and advertising you see.
Visit our Privacy Policy to learn more. By continuing to use the site, you agree to this use of cookies and data.
  • In Hungary
  • List of Countries
  • For 7 days
  • Water Temperature
  • Weather Map
  • News
  • Weather Widgets
  • user-avatar
    Login

    Hourly Weather Berezovka

    Today, 15 September, Sunday

    Time Temperature Precipitation Wind Pressure Humidity
    00:00 +13°C° 0.1 mm 4 mps 743 mmHg 91%
    01:00 +13°C° 0.1 mm 5 mps 743 mmHg 91%
    02:00 +13°C° 0.3 mm 5 mps 742 mmHg 91%
    03:00 +12°C° 0.3 mm 4 mps 742 mmHg 92%
    04:00 +12°C° 0 mm 4 mps 741 mmHg 92%
    05:00 +11°C° 0 mm 4 mps 742 mmHg 88%
    06:00 +9°C° 0 mm 5 mps 742 mmHg 84%
    07:00 +9°C° 0 mm 5 mps 742 mmHg 80%
    08:00 +9°C° 0.1 mm 5 mps 742 mmHg 78%
    09:00 +9°C° 0.1 mm 5 mps 742 mmHg 76%
    10:00 +9°C° 0.1 mm 6 mps 742 mmHg 75%
    11:00 +9°C° 0 mm 6 mps 742 mmHg 73%
    12:00 +9°C° 0 mm 6 mps 742 mmHg 72%
    13:00 +9°C° 0 mm 5 mps 742 mmHg 70%
    14:00 +9°C° 0 mm 6 mps 742 mmHg 69%
    15:00 +9°C° 0 mm 6 mps 742 mmHg 67%
    16:00 +9°C° 0 mm 6 mps 742 mmHg 66%
    17:00 +8°C° 0 mm 6 mps 741 mmHg 67%
    18:00 +8°C° 0 mm 6 mps 741 mmHg 68%
    19:00 +8°C° 0 mm 6 mps 741 mmHg 69%
    20:00 +8°C° 0 mm 6 mps 740 mmHg 69%
    21:00 +8°C° 0 mm 6 mps 740 mmHg 70%
    22:00 +8°C° 0 mm 6 mps 739 mmHg 70%
    23:00 +7°C° 0.2 mm 6 mps 739 mmHg 75%

    Tomorrow, 16 September, Monday

    Time Temperature Precipitation Wind Pressure Humidity
    00:00 +7°C° 0.2 mm 6 mps 738 mmHg 79%
    01:00 +7°C° 0.2 mm 6 mps 738 mmHg 84%
    02:00 +5°C° 0.3 mm 6 mps 738 mmHg 85%
    03:00 +6°C° 0.3 mm 5 mps 737 mmHg 86%
    04:00 +6°C° 0.3 mm 5 mps 737 mmHg 87%
    05:00 +6°C° 0.3 mm 5 mps 737 mmHg 88%
    06:00 +6°C° 0.3 mm 5 mps 737 mmHg 89%
    07:00 +5°C° 0.3 mm 5 mps 737 mmHg 90%
    08:00 +4°C° 0.5 mm 6 mps 737 mmHg 90%
    09:00 +4°C° 0.5 mm 6 mps 737 mmHg 90%
    10:00 +4°C° 0.5 mm 6 mps 737 mmHg 90%
    11:00 +6°C° 0.1 mm 5 mps 737 mmHg 87%
    12:00 +6°C° 0.1 mm 5 mps 737 mmHg 85%
    13:00 +6°C° 0.1 mm 4 mps 738 mmHg 82%
    14:00 +7°C° 0.1 mm 4 mps 738 mmHg 79%
    15:00 +8°C° 0.1 mm 4 mps 738 mmHg 76%
    16:00 +9°C° 0.1 mm 3 mps 739 mmHg 73%
    17:00 +9°C° 0 mm 3 mps 739 mmHg 76%
    18:00 +8°C° 0 mm 3 mps 739 mmHg 78%
    19:00 +7°C° 0 mm 2 mps 739 mmHg 81%
    20:00 +7°C° 0 mm 2 mps 738 mmHg 81%
    21:00 +5°C° 0 mm 3 mps 738 mmHg 81%
    22:00 +5°C° 0 mm 3 mps 738 mmHg 81%
    23:00 +5°C° 0 mm 3 mps 737 mmHg 82%

    Day after tomorrow, 17 September, Tuesday

    Time Temperature Precipitation Wind Pressure Humidity
    00:00 +5°C° 0 mm 3 mps 737 mmHg 83%
    01:00 +5°C° 0 mm 3 mps 737 mmHg 84%
    02:00 +5°C° 0 mm 3 mps 737 mmHg 84%
    03:00 +5°C° 0 mm 3 mps 737 mmHg 83%
    04:00 +6°C° 0 mm 4 mps 736 mmHg 83%
    05:00 +6°C° 0.1 mm 4 mps 736 mmHg 85%
    06:00 +6°C° 0.1 mm 4 mps 736 mmHg 87%
    07:00 +6°C° 0.1 mm 4 mps 736 mmHg 89%
    08:00 +6°C° 0.1 mm 4 mps 736 mmHg 88%
    09:00 +6°C° 0.1 mm 4 mps 735 mmHg 87%
    10:00 +8°C° 0.1 mm 3 mps 735 mmHg 86%
    11:00 +8°C° 0.1 mm 3 mps 736 mmHg 86%
    12:00 +8°C° 0.1 mm 3 mps 736 mmHg 86%
    13:00 +8°C° 0.1 mm 3 mps 736 mmHg 86%
    14:00 +8°C° 0 mm 3 mps 736 mmHg 85%
    15:00 +9°C° 0 mm 3 mps 736 mmHg 85%
    16:00 +9°C° 0 mm 3 mps 736 mmHg 84%
    17:00 +8°C° 0 mm 3 mps 736 mmHg 86%
    18:00 +8°C° 0 mm 3 mps 736 mmHg 89%
    19:00 +7°C° 0 mm 3 mps 736 mmHg 92%
    20:00 +7°C° 0 mm 2 mps 736 mmHg 93%
    21:00 +6°C° 0 mm 2 mps 736 mmHg 94%
    22:00 +6°C° 0 mm 2 mps 736 mmHg 94%
    23:00 +5°C° 0 mm 2 mps 736 mmHg 96%

    18 September, Wednesday

    Time Temperature Precipitation Wind Pressure Humidity
    00:00 +5°C° 0 mm 2 mps 736 mmHg 97%
    01:00 +5°C° 0 mm 2 mps 736 mmHg 98%
    02:00 +5°C° 0 mm 2 mps 736 mmHg 97%
    03:00 +5°C° 0 mm 2 mps 736 mmHg 97%
    04:00 +6°C° 0 mm 2 mps 736 mmHg 97%
    05:00 +6°C° 0 mm 2 mps 736 mmHg 97%
    06:00 +6°C° 0 mm 1 mps 736 mmHg 96%
    07:00 +6°C° 0 mm 1 mps 736 mmHg 96%
    08:00 +7°C° 0.1 mm 1 mps 736 mmHg 94%
    09:00 +7°C° 0.1 mm 2 mps 736 mmHg 91%
    10:00 +8°C° 0.1 mm 2 mps 736 mmHg 89%
    11:00 +8°C° 0.2 mm 2 mps 736 mmHg 87%
    12:00 +9°C° 0.2 mm 2 mps 736 mmHg 84%
    13:00 +9°C° 0.2 mm 2 mps 737 mmHg 82%
    14:00 +9°C° 0.2 mm 2 mps 737 mmHg 82%
    15:00 +10°C° 0.2 mm 1 mps 737 mmHg 83%
    16:00 +10°C° 0.2 mm 1 mps 737 mmHg 84%
    17:00 +9°C° 0.1 mm 1 mps 737 mmHg 87%
    18:00 +9°C° 0.1 mm 1 mps 737 mmHg 91%
    19:00 +8°C° 0.1 mm 1 mps 737 mmHg 94%
    20:00 +8°C° 0 mm 1 mps 737 mmHg 94%
    21:00 +7°C° 0 mm 1 mps 737 mmHg 95%
    22:00 +7°C° 0 mm 1 mps 737 mmHg 96%
    23:00 +6°C° 0 mm 1 mps 737 mmHg 96%

    19 September, Thursday

    Time Temperature Precipitation Wind Pressure Humidity
    00:00 +6°C° 0 mm 1 mps 738 mmHg 96%
    01:00 +6°C° 0 mm 1 mps 738 mmHg 97%
    02:00 +5°C° 0 mm 2 mps 738 mmHg 96%
    03:00 +5°C° 0 mm 2 mps 738 mmHg 96%
    04:00 +5°C° 0 mm 2 mps 738 mmHg 96%
    05:00 +5°C° 0 mm 2 mps 738 mmHg 95%
    06:00 +5°C° 0 mm 2 mps 738 mmHg 93%
    07:00 +4°C° 0 mm 3 mps 738 mmHg 92%
    08:00 +4°C° 0 mm 3 mps 738 mmHg 89%
    09:00 +4°C° 0 mm 3 mps 738 mmHg 86%
    10:00 +4°C° 0 mm 3 mps 738 mmHg 83%
    11:00 +5°C° 0 mm 3 mps 738 mmHg 78%
    12:00 +5°C° 0 mm 3 mps 739 mmHg 72%
    13:00 +7°C° 0 mm 3 mps 739 mmHg 67%
    14:00 +7°C° 0 mm 3 mps 739 mmHg 65%
    15:00 +8°C° 0 mm 3 mps 740 mmHg 62%
    16:00 +8°C° 0 mm 3 mps 740 mmHg 59%
    17:00 +5°C° 0 mm 3 mps 740 mmHg 66%
    18:00 +5°C° 0 mm 2 mps 741 mmHg 74%
    19:00 +4°C° 0 mm 2 mps 741 mmHg 81%
    20:00 +3°C° 0 mm 2 mps 741 mmHg 83%
    21:00 +3°C° 0 mm 2 mps 741 mmHg 86%
    22:00 +3°C° 0 mm 2 mps 742 mmHg 88%
    23:00 +2°C° 0 mm 2 mps 742 mmHg 90%

    20 September, Friday

    Time Temperature Precipitation Wind Pressure Humidity
    00:00 +2°C° 0 mm 2 mps 742 mmHg 91%
    01:00 +2°C° 0 mm 2 mps 742 mmHg 92%
    02:00 +2°C° 0 mm 2 mps 743 mmHg 91%
    03:00 +2°C° 0 mm 2 mps 743 mmHg 90%
    04:00 +1°C° 0 mm 2 mps 743 mmHg 89%
    05:00 +1°C° 0 mm 2 mps 743 mmHg 89%
    06:00 +1°C° 0 mm 2 mps 743 mmHg 89%
    07:00 +1°C° 0 mm 2 mps 743 mmHg 88%
    08:00 +1°C° 0 mm 3 mps 743 mmHg 83%
    09:00 +2°C° 0 mm 3 mps 743 mmHg 78%
    10:00 +3°C° 0 mm 3 mps 744 mmHg 73%
    11:00 +3°C° 0.1 mm 3 mps 744 mmHg 75%
    12:00 +3°C° 0.1 mm 3 mps 744 mmHg 76%
    13:00 +3°C° 0.1 mm 4 mps 744 mmHg 78%
    14:00 +3°C° 0.1 mm 4 mps 745 mmHg 76%
    15:00 +3°C° 0.1 mm 4 mps 745 mmHg 74%
    16:00 +4°C° 0.1 mm 4 mps 745 mmHg 72%
    17:00 +3°C° 0 mm 3 mps 745 mmHg 74%
    18:00 +2°C° 0 mm 3 mps 745 mmHg 77%
    19:00 +1°C° 0 mm 3 mps 745 mmHg 79%
    20:00 +1°C° 0 mm 3 mps 746 mmHg 81%
    21:00 0°C° 0 mm 3 mps 746 mmHg 82%
    22:00 0°C° 0 mm 3 mps 746 mmHg 84%
    23:00 +1°C° 0 mm 2 mps 746 mmHg 85%
    Show more